Regional Weather Roundup
Issued by NWS State College, PA

Home | Current Version | Previous Version | Text Only | Print | Product List | Glossary Off
Versions: 1 2 3 4 5 6 7 8 9 10 11 12 13 14 15 16 17 18 19 20 21 22 23 24 25 26 27 28 29 30 31 32 33 34 35 36 37 38 39 40 41 42 43 44 45 46 47 48 49 50

000
ASUS41 KCTP 200810
RWRCTP

REGIONAL WEATHER ROUNDUP
NATIONAL WEATHER SERVICE STATE COLLEGE PA
300 AM EST MON FEB 20 2017

Note: "fair" indicates few or no clouds below 12,000 feet with no
significant weather and/or obstructions to visibility.

* = STATION THAT DOES NOT REPORT PRECIPITATION /E.G. RAIN...SNOW...ETC/
    THUNDER OR FOG.

PAZ002>004-007>009-013>016-020>023-029>032-200900-
WESTERN PENNSYLVANIA

CITY           SKY/WX    TMP DP  RH WIND       PRES   REMARKS
ERIE           CLEAR     31  28  89 CALM      30.18S
MEADVILLE      CLEAR     38  31  76 CALM      30.16R
FRANKLIN*      CLEAR     36  28  75 CALM      30.17S
NEW CASTLE     FAIR      31  28  89 CALM      30.18R
BEAVER COUNTY  NOT AVBL
BUTLER*        CLEAR     36  28  75 CALM      30.18R
PITTSBURGH INT CLEAR     42  40  92 CALM      30.17R
PITTSBURGH     CLEAR     45  39  79 SW3       30.17R
INDIANA*       FOG       34  32  93 CALM      30.19R VSB 1/2
LATROBE        CLEAR     37  37 100 S3        30.18R FOG
WASHINGTON CO* CLOUDY    34  34 100 CALM      30.19R VSB 1/4
$$

PAZ004>006-010>012-017>019-024>028-033>037-041-042-045-046-049>053-200900-
CENTRAL PENNSYLVANIA

CITY           SKY/WX    TMP DP  RH WIND       PRES   REMARKS
BRADFORD       CLEAR     32  28  85 W5        30.13R
DUBOIS         CLEAR     38  29  70 W5        30.13R
CLEARFIELD       N/A    N/A N/A N/A MISG      30.13R
JOHNSTOWN      CLEAR     42  40  92 W8        30.12S
ALTOONA        CLEAR     43  35  73 NW5       30.13R
STATE COLLEGE  PTCLDY    44  31  60 CALM      30.13R
WILLIAMSPORT   CLEAR     43  32  65 W9        30.11R
SELINSGROVE    CLEAR     35  30  82 N7        30.10R
FT INDIANTOWN  CLEAR     50  31  47 VRB7      30.07R
CAPITAL CITY   CLEAR     54  28  36 NW10      30.07R
HARRISBURG     PTCLDY    50  30  46 N8        30.07R
YORK           CLEAR     48  30  49 N8        30.07R
$$

PAZ038>040-043-044-047-048-054-055-060>062-067>071-200900-
EASTERN PENNSYLVANIA

CITY           SKY/WX    TMP DP  RH WIND       PRES   REMARKS
SCRANTON       CLEAR     42  32  67 VRB5      30.07R
MOUNT POCONO   CLEAR     36  29  75 NW10      30.01R
ALLENTOWN      CLEAR     45  32  60 N5        30.07R
QUAKERTOWN*    SUNNY     48  32  53 N3        30.06R
READING        CLEAR     48  34  58 NW10      30.06R
LANCASTER      CLEAR     50  31  48 NW12      30.06R
COATESVILLE    SUNNY     48  28  46 N5        30.06R
POTTSTOWN      CLEAR     48  31  51 N8        30.07R
BLUE BELL      CLEAR     46  32  57 CALM      30.05R
DOYLESTOWN     CLEAR     46  32  58 N5        30.04S
WILLOW GROVE   NOT AVBL
NORTH PHILA    CLEAR     49  33  54 N9        30.06R
PHILADELPHIA   PTCLDY    49  31  49 N10       30.05S
$$




USA.gov is the U.S. government's official web portal to all federal, state and local government web resources and services.